CZ-6A DEB, 60967

Orbit data source: Space-Track

CZ-6A DEB, 60967 is space debris in LEO originally from a launch on Tue, 06 Aug 2024 UTC launched from the Taiyaun Space Center, China (TSC). Debris objects in space refer to the collection of defunct objects orbiting the Earth. Examples of debris include non-operational satellites, rocket bodies, and fragments generated from explosions, collisions, or faulty payload assembly.

Loading next visibility...
Identifier
60967, 2024-140LS
Orbit
LEO
Country
Flag of CNCN / PRC
Related business
Manufacturer
SAST
Mission
Spacecraft
Bus & Motor
Unknown
Mass
Unknown
Launch date (UTC)
2024-08-06 (1 year ago)
Launch vehicle
Unknown
Launch site
Taiyaun Space Center, China (TSC)
Object type
Payload
Rocket body
Debris
Shape & HBR
Unknown shape, 0.1 m
Radar Cross Section
Small (<0.1 m²)

Expand to show TLE details & history
Last TLE update: 2 days ago

TLE from 2 days ago
0 CZ-6A DEB
1 60967U 24140LS  25312.21290268  .00003913  00000-0  21057-2 0  9995
2 60967  88.8171 291.1886 0120301 247.0027 111.8431 14.09052758 62689
Epoch: 2025-11-08T05:06Z
TLE epoch observation values (Epoch: 2025-11-08T05:06:34.791Z)
Latitude
-0.00002°
Longitude
166.89789°
Altitude
898.965 km
Speed
7.385 km/s
True Right ascension
19h 24m 45s
True Declination
0° 00' 00"
Sunlit
Object was in daylight at epoch
Visualization orbit readout
Latitude
Unknown
Longitude
Unknown
Altitude
Unknown
Speed
Unknown
Apparent Right ascension
Unknown
Apparent Declination
Unknown
Sunlit
N/A
Visualization observer readout
Local Sidereal Time
20:00:07
Azimuth
Unknown
Elevation
Unknown
Doppler factor
Unknown
Orbital elements
Apogee altitude
946.653 km
Perigee altitude
772.512 km
Semi-major axis
7,237.719 km
Eccentricity
0.01203
Inclination
88.8171°
RAAN
291.1886°
Arg. of periapsis
247.0027°
True anomaly
113.11545°
Mean anomaly
111.8431°
Eccentric anomaly
112.48°
Mean motion
3.52485 °/min
Orbital period
102.13 mins
BSTAR
0.0021057
Loading maneuver chart data...
Computing Atmospheric mass density...

Documentation

Showing up to 5 results
|